This is the latest recevied weather packets stored in our database for station/object KD0JCP-10. If no packets are shown the sender has not sent any weather packets the latest 1 day(s).
| Time | Temp. | Humidity | Pressure | Rain* | Wind** | Luminosity | Snow |
|---|---|---|---|---|---|---|---|
| 1777989973 | 8.89° C | 57% | 1013.6 hPa | 0 mm | 1.34 m/s, 88° | - | - |
| 1777989673 | 8.89° C | 57% | 1013.5 hPa | 0 mm | 1.34 m/s, 55° | - | - |
| 1777989373 | 8.89° C | 59% | 1013.5 hPa | 0 mm | 1.34 m/s, 74° | - | - |
| 1777989073 | 8.89° C | 60% | 1013.3 hPa | 0 mm | 1.34 m/s, 71° | - | - |
| 1777988773 | 8.89° C | 62% | 1013.3 hPa | 0 mm | 1.34 m/s, 82° | - | - |
| 1777988473 | 8.89° C | 62% | 1013.1 hPa | 0 mm | 1.34 m/s, 47° | - | - |
| 1777988173 | 8.89° C | 62% | 1013.2 hPa | 0 mm | 1.79 m/s, 58° | - | - |
| 1777987873 | 8.89° C | 62% | 1013 hPa | 0 mm | 2.24 m/s, 61° | - | - |
| 1777987573 | 8.33° C | 63% | 1012.9 hPa | 0 mm | 2.68 m/s, 88° | - | - |
| 1777987273 | 8.33° C | 64% | 1013 hPa | 0 mm | 2.24 m/s, 65° | - | - |
| 1777986973 | 8.33° C | 65% | 1013 hPa | 0 mm | 2.68 m/s, 57° | - | - |
| 1777986673 | 8.33° C | 66% | 1013.1 hPa | 0 mm | 2.24 m/s, 27° | - | - |
| 1777986373 | 8.33° C | 68% | 1013.1 hPa | 0 mm | 2.24 m/s, 39° | - | - |
| 1777986073 | 8.33° C | 69% | 1013.1 hPa | 0 mm | 1.79 m/s, 65° | - | - |
| 1777985773 | 8.33° C | 70% | 1012.7 hPa | 0 mm | 1.79 m/s, 41° | - | - |
| 1777985473 | 8.33° C | 70% | 1012.6 hPa | 0 mm | 1.79 m/s, 15° | - | - |
| 1777985173 | 8.33° C | 70% | 1012.5 hPa | 0 mm | 1.79 m/s, 12° | - | - |
| 1777984873 | 8.33° C | 69% | 1012.3 hPa | 0 mm | 1.79 m/s, 59° | - | - |
| 1777984573 | 8.33° C | 68% | 1012.1 hPa | 0 mm | 1.34 m/s, 79° | - | - |
| 1777984273 | 8.33° C | 68% | 1012.2 hPa | 0 mm | 1.79 m/s, 0° | - | - |
| 1777983973 | 8.89° C | 67% | 1012 hPa | 0 mm | 1.79 m/s, 5° | - | - |
| 1777983673 | 8.89° C | 67% | 1011.8 hPa | 0 mm | 1.79 m/s, 39° | - | - |
| 1777983373 | 8.89° C | 66% | 1011.8 hPa | 0 mm | 1.79 m/s, 51° | - | - |
| 1777983073 | 8.89° C | 66% | 1011.8 hPa | 0 mm | 1.79 m/s, 44° | - | - |
| 1777982773 | 8.89° C | 65% | 1011.7 hPa | 0 mm | 1.79 m/s, 61° | - | - |
* Rain latest hour (hover to see other rain measurements)
** Current wind speed in m/s (hover to see current wind gust speed)